Regional Weather Roundup
Issued by NWS Upton, NY

Current Version | Previous Version | Graphics & Text | Print | Product List | Glossary Off
Versions: 1 2 3 4 5 6 7 8 9 10 11 12 13 14 15 16 17 18 19 20 21 22 23 24 25 26 27 28 29 30 31 32 33 34 35 36 37 38 39 40 41 42 43 44 45 46 47 48 49 50

121
ASUS41 KOKX 070304
RWROKX

REGIONAL WEATHER ROUNDUP
NATIONAL WEATHER SERVICE NEW YORK NY
1000 PM EST SAT FEB 06 2016

NOTE: "FAIR" INDICATES FEW OR NO CLOUDS BELOW 12,000 FEET WITH NO
SIGNIFICANT WEATHER AND/OR OBSTRUCTIONS TO VISIBILITY.

NYZ071-072-176-178-NJZ106-104-070400-
NEW YORK CITY METRO AREA


CITY           SKY/WX    TMP DP  RH WIND       PRES   REMARKS
CENTRAL PARK   CLEAR     38  20  48 VRB7G18   30.30S WCI  33
LAGUARDIA APRT PTCLDY    39  22  50 S8        30.29S WCI  33
KENNEDY INTL   PTCLDY    36  24  62 SW14      30.31S WCI  27
NEWARK/LIBERTY PTCLDY    33  23  66 S7        30.30S WCI  27
BRNX BOT. GARD   N/A     37  23  56 CALM      30.29R
TETERBORO      CLEAR     32  22  66 SW5       30.28S WCI  27
$$

NYZ177-179-078>081-070400-
LONG ISLAND NEW YORK

CITY           SKY/WX    TMP DP  RH WIND       PRES   REMARKS
FARMINGDALE    CLEAR     33  23  66 SW5       30.30S WCI  29
ISLIP          PTCLDY    32  25  75 SW6       30.28S WCI  26
SHIRLEY        PTCLDY    28  25  88 CALM      30.30S
RIVERHEAD        N/A     32  25  74 CALM      30.31S
WESTHAMPTON    CLEAR     22  21  96 SW3       30.31S
EAST HAMPTON   FAIR      25  24  99 CALM      30.29S
MONTAUK POINT    N/A     36  29  75 SW3       30.30S
$$

NYZ052-065-067-070400-
HUDSON VALLEY

CITY           SKY/WX    TMP DP  RH WIND       PRES   REMARKS
WHITE PLAINS   CLEAR     34  19  54 SW3       30.26S
NEWBURGH       CLEAR     32  21  64 W5        30.25R WCI  27
MONTGOMERY     CLEAR     27  21  78 SE3       30.23S
POUGHKEEPSIE   CLEAR     30  19  63 SE3       30.25S
ALBANY         CLOUDY    36  18  48 S9        30.19F WCI  29
$$

NJZ001-105-106-008-010-013-015-019>022-104-070400-
NEW JERSEY

CITY           SKY/WX    TMP DP  RH WIND       PRES   REMARKS
NEWARK/LIBERTY PTCLDY    33  23  66 S7        30.30S WCI  27
TETERBORO      CLEAR     32  22  66 SW5       30.28S WCI  27
CALDWELL       CLEAR     30  21  69 CALM      30.29S
MORRISTOWN     CLEAR     25  25 100 CALM      30.29S
SOMERVILLE     CLEAR     25  21  85 CALM      30.28S
SUSSEX         CLEAR     26  20  77 CALM      30.25S
ANDOVER          N/A     25  21  85 CALM      30.26S
TRENTON        CLEAR     32  21  64 CALM      30.29S
MILLVILLE      CLEAR     27  25  92 CALM      30.32S
ATLANTIC CITY  PTCLDY    33  26  75 SW3       30.32F
WRIGHTSTOWN    CLEAR     30  29  93 SW5       30.28S WCI  26
TOMS RIVER     CLEAR     30  23  74 SW5       30.32S WCI  25
BELMAR         CLEAR     34  19  55 SW6       30.30S WCI  29
$$

PAZ047>061-062-071-070400-
EASTERN PENNSYLVANIA

CITY           SKY/WX    TMP DP  RH WIND       PRES   REMARKS
PHILADELPHIA   MOCLDY    36  27  69 SW6       30.32S WCI  31
ALLENTOWN      CLOUDY    30  20  66 W5        30.27F WCI  25
SCRANTON       CLOUDY    32  18  56 CALM      30.22R
$$

CTZ002-004>006-009-010-012-RIZ004-006-007-MAZ004-011-015-070400-
SOUTHERN NEW ENGLAND
 IN CT

CITY           SKY/WX    TMP DP  RH WIND       PRES   REMARKS
BRADLEY INTL   CLEAR     30  23  75 S10       30.25S WCI  21
HARTFORD       PTCLDY    28  24  85 SE3       30.27F
DANBURY        CLEAR     34  17  50 SW8       30.26S WCI  27
WTRBRY/OXFORD  CLEAR     28  16  59 SW3       30.25S
BRIDGEPORT     CLEAR     38  27  64 SW12      30.28S WCI  30
MERIDEN        CLEAR     23  20  88 CALM      30.28S FOG
NEW HAVEN      CLOUDY    37  29  72 SW5       30.28S WCI  33
CHESTER        FAIR      34  30  86 SW3       30.27S
GROTON         CLEAR     36  31  82 SW9       30.28F WCI  29
WILLIMANTIC    PTCLDY    22  17  81 CALM      30.27F HAZE

 IN RI

CITY           SKY/WX    TMP DP  RH WIND       PRES   REMARKS
PROVIDENCE     PTCLDY    30  25  81 SW8       30.28F WCI  22
BLOCK ISLAND   CLEAR     36  30  80 W9        30.28S WCI  29
WESTERLY       CLEAR     35  28  75 SW7       30.29F WCI  29

 IN MA

CITY           SKY/WX    TMP DP  RH WIND       PRES   REMARKS
BOSTON         PTCLDY    30  24  78 SW14      30.25F WCI  19
WORCESTER      CLEAR     25  20  81 SW9       30.20S WCI  15
WESTFIELD      CLEAR     28  20  71 S12       30.23F WCI  18
PROVINCETOWN   CLEAR     34  28  79 SW17G24   30.27F WCI  23
NANTUCKET      CLOUDY    38  30  73 SW13      30.29F WCI  30
$$

ANZ330-335-338-340-345-350-353-355-070400-
COASTAL MARINE OBSERVATIONS


STATION/POSITION TIME  SKY/WX   TEMP    WIND        PRES    VSBY  WAVE
                                AIR SEA DIR/SP/G                  HT/PER
                 (UTC)          (F)     (DEG/KT/KT) (MB)    (MI)  (FT/S)
NY HARB ENTRANCE 0150            40 44  240/ 14/ 16 1025.8          2/10
4S FIRE IS       NOT AVBL
20S FIRE ISLAND  0150            40 44  240/ 12/ 16 1026.0          3/ 4
GREAT SOUTH BAY  NOT AVBL
23SW MTP         0250            41 45  250/ 14/ 17 1025.4          3/ 4
HUDSON CANYON    0150            42 51              1026.6          3/ 9
KINGS POINT      0200            38 39  240/  7/  8 1025.3
EXECUTION ROCKS  NOT AVBL
CENTRAL LI SOUND 0200            39     220/ 12/ 16   N/A           1/ 4
EASTERN LI SOUND 0200            39 42  240/ 14/ 16   N/A
ROBBINS REEF     0200            38     220/ 11/ 15 1025.2
$$


>>>>>>>>>>>>>>>>>>>>>>>>>>>> KEY <<<<<<<<<<<<<<<<<<<<<<<<<<<
>                                                          <
>     SKY/WX - SKY CONDITION/PRESENT WEATHER               <
>     TMP    - TEMPERATURE IN FAHRENHEIT                   <
>     DP     - DEWPOINT IN FAHRENHEIT                      <
>     RH     - RELATIVE HUMIDITY IN PERCENT                <
>     WIND   - DIRECTION AND SPEED IN MPH                  <
>     PRES   - MEAN SEA LEVEL PRESSURE IN INCHES OF HG     <
>     WCI    - WIND CHILL INDEX                            <
>     VSB    - VISIBILITY IN MILES                         <
>     HX     - HEAT INDEX                                  <
>     TC     - TEMPERATURE IN CELSIUS                      <
>     VRB    - VARIABLE WIND DIRECTION                     <
>                                                          <
>>>>>>>>>>>>>>>>>>>>>>>>>>>> KEY <<<<<<<<<<<<<<<<<<<<<<<<<<<






USA.gov is the U.S. government's official web portal to all federal, state and local government web resources and services.